Location: Champaign/Urbana Astronomical Society Observatory
(40.0333°N, 88.2833°W)
Time: 01:49:25
(UTC-05:00)

STRAND 1 - Visible Passes

Search period start: 25 May 2019 00:00
Search period end: 04 June 2019 00:00
Orbit: 768 x 781 km, 98.5° (Epoch: 23 May)

Date Brightness Start Highest point End Pass type
(mag) Time Alt. Az. Time Alt. Az. Time Alt. Az.
25 May ? 21:29:33 10° N 21:33:52 28° WNW 21:38:10 10° WSW visible
26 May ? 20:55:04 10° N 21:00:06 56° WNW 21:05:08 10° SSW visible
27 May ? 22:01:55 10° NNW 22:04:44 15° WNW 22:07:33 10° W visible
28 May ? 21:26:44 10° N 21:31:08 29° WNW 21:35:31 10° SW visible
29 May ? 20:52:17 10° N 20:57:22 60° WNW 21:02:25 10° SSW visible
30 May ? 21:59:01 10° NNW 22:02:01 16° WNW 22:05:01 10° W visible
31 May ? 21:23:56 10° N 21:28:24 31° WNW 21:32:53 10° SW visible
01 Jun ? 20:49:30 10° N 20:54:37 63° WNW 20:59:42 10° SSW visible
02 Jun ? 21:56:08 10° NNW 21:59:18 17° WNW 22:02:29 10° W visible
03 Jun ? 21:21:07 10° N 21:25:41 33° WNW 21:30:14 10° SW visible
